Wind_Speed
5 3 3 2 1 1 1 2 3 3 2 2 2 2 3 4 5 6 7 9 10 11 13 14 15 16 17 18 20 21 22 24 25 26 27 28 29 30 30 31 33 34 36 39 42 45 47 48 48
6 6 6 5 5 5 4 3 2 2 3 4 4 5 5 7 8 9 10 11 12 14 15 16 18 20 21 23 25 27 28 30 31 33 34 35 36 36 36 37 37 37 38 38 40 42 45 48 50
10 9 9 8 8 8 7 6 6 6 6 6 7 7 8 9 10 10 11 13 14 16 18 20 22 25 27 29 31 33 35 37 38 40 41 42 43 44 44 44 45 44 44 44 43 43 44 45 48
11 10 10 9 9 9 8 8 8 8 8 8 8 8 9 10 10 11 13 15 17 20 22 25 28 30 32 34 36 38 40 42 44 46 47 48 50 51 51 52 52 52 51 51 51 50 49 48 48
12 11 11 10 10 10 10 9 9 9 9 8 8 8 9 11 12 14 17 19 22 25 27 30 33 35 37 40 42 44 46 48 50 51 53 54 56 57 57 58 59 59 58 58 57 57 56 55 53
13 12 11 11 11 11 10 9 8 7 7 7 8 10 11 14 16 18 21 24 27 30 33 35 38 40 42 45 47 49 51 53 55 57 59 60 62 63 64 65 65 65 65 64 64 63 62 61 60
13 12 11 11 10 8 8 7 6 6 6 7 10 12 15 17 20 23 26 29 32 35 37 40 42 44 47 49 52 54 56 59 61 63 64 66 68 70 71 72 72 72 72 72 71 70 69 67 66
11 10 9 8 7 6 5 5 6 7 8 11 13 16 19 22 25 28 31 33 36 38 41 43 46 48 51 54 57 59 62 64 66 68 70 72 73 75 76 77 78 79 79 79 78 77 76 74 72
8 7 6 6 4 4 6 7 9 11 13 16 18 21 24 27 29 32 34 36 39 41 44 46 49 52 55 58 61 63 66 68 70 72 74 75 77 78 80 81 83 84 85 85 85 84 83 81 79
4 3 4 4 5 6 9 11 13 16 18 21 23 26 28 31 33 35 37 39 41 44 48 50 53 56 59 62 64 67 70 72 74 76 77 79 81 83 85 86 88 89 90 91 92 92 92 90 87
3 4 6 7 9 11 13 15 18 20 22 25 27 30 32 33 35 37 39 41 44 47 51 54 57 60 62 65 67 70 73 75 77 79 82 84 86 88 90 92 93 94 95 96 97 98 98 98 97
7 9 11 12 14 16 18 20 22 24 26 28 30 32 33 35 37 39 41 44 47 50 54 57 60 62 65 68 71 74 76 78 81 84 87 89 92 94 95 96 95 95 94 95 96 97 99 101 102
11 13 15 17 19 20 22 23 25 26 28 29 31 32 35 37 39 41 44 46 49 52 56 59 62 65 68 71 74 77 80 83 87 90 93 95 96 96 95 94 91 90 88 88 88 89 91 95 98
15 17 19 20 21 22 24 25 26 27 29 30 32 34 36 39 41 43 45 48 51 55 58 61 64 68 71 75 78 81 85 89 92 95 96 96 95 93 90 88 85 84 82 81 80 81 82 84 88
18 19 20 21 22 23 23 24 25 26 28 29 32 35 38 40 42 44 47 50 53 57 60 64 68 72 75 79 82 86 90 93 95 95 94 92 89 87 85 83 81 79 77 75 74 74 75 76 79
19 20 21 21 21 22 23 23 24 25 27 30 32 36 38 40 42 45 48 52 56 59 63 67 71 75 78 82 86 90 93 94 94 92 89 86 84 83 81 78 75 71 69 67 66 65 66 68 71
19 20 21 22 22 22 23 23 24 26 28 31 33 36 39 41 44 47 50 54 58 61 66 70 74 77 81 85 89 92 93 92 90 87 85 83 81 78 74 70 65 61 58 56 55 54 56 58 63
20 21 22 22 22 22 22 23 25 27 29 31 34 36 39 42 45 49 53 56 60 64 68 72 76 79 83 87 90 91 90 88 85 84 82 80 77 72 67 62 58 55 52 50 49 48 48 50 53
20 20 21 21 21 21 22 23 26 27 29 32 34 37 40 44 47 51 55 58 63 67 71 74 78 81 84 87 89 89 87 84 83 81 80 76 71 67 62 58 55 53 51 50 49 47 47 47 48
19 19 20 20 21 22 22 23 26 28 30 33 36 39 42 46 49 53 57 61 65 69 72 76 79 82 86 89 89 87 84 82 80 78 75 71 67 64 61 58 57 56 55 54 53 51 48 46 47
18 19 20 21 22 23 23 23 27 29 31 34 37 41 44 48 51 55 59 63 66 70 73 76 79 83 87 88 87 84 81 79 77 75 71 67 65 63 62 62 61 61 61 60 59 56 53 49 47
19 19 21 22 23 24 26 25 27 30 33 36 39 42 46 49 53 57 60 64 67 71 74 77 80 84 87 86 84 82 79 78 76 73 69 66 64 64 65 67 68 68 67 65 63 60 57 53 49
19 20 21 22 23 24 26 27 29 32 35 38 41 44 47 51 54 58 61 65 68 71 74 78 81 84 85 84 82 79 78 77 75 71 68 66 66 68 70 72 72 70 67 65 63 60 57 54 51
20 20 21 22 23 24 27 29 31 34 36 39 42 45 49 52 55 58 62 66 69 71 75 78 81 83 83 82 79 78 76 75 73 70 68 67 69 71 74 72 68 64 61 59 57 56 54 52 49
22 23 24 24 25 26 28 29 32 34 37 40 44 47 50 53 56 59 63 66 69 72 75 78 80 81 81 79 77 76 75 75 73 71 71 71 73 74 72 67 62 57 52 49 48 48 49 48 46
24 26 27 28 28 26 27 28 31 34 38 42 45 48 50 53 56 60 63 66 69 71 74 77 80 80 79 77 75 74 74 74 72 72 73 75 76 75 70 64 58 51 45 39 35 36 38 40 41
26 27 29 30 30 28 28 31 33 37 40 43 46 48 51 54 56 60 63 66 69 71 74 77 78 78 77 75 73 72 73 73 72 73 74 76 76 73 68 61 55 48 40 32 24 22 26 30 33
28 30 31 32 35 34 32 33 36 39 41 44 46 49 51 54 57 60 64 66 68 71 74 76 77 77 75 73 71 71 72 72 72 73 74 75 75 71 64 58 52 45 39 31 20 10 13 19 25
30 31 33 33 34 36 37 35 39 40 42 45 47 49 52 54 57 61 64 66 68 70 73 75 76 75 73 71 70 70 70 71 72 72 74 74 73 69 63 56 50 44 39 32 22 11 2 10 16
30 33 34 35 36 37 38 38 41 41 43 45 47 49 52 55 58 61 64 66 67 70 72 74 74 73 71 69 68 68 69 70 71 71 72 73 71 67 62 55 47 41 36 31 24 15 6 2 10
Wind_Direction
93 93 90 80 86 55 337 306 297 287 289 331 358 4 4 360 0 355 354 355 349 345 340 336 331 326 321 317 312 309 306 303 300 298 295 293 291 288 286 283 279 275 272 269 266 263 261 260 259
77 75 73 70 68 70 66 56 49 56 55 49 43 37 29 23 19 12 4 357 349 342 335 329 324 319 314 311 307 305 302 300 298 296 294 292 290 288 285 283 281 278 275 272 269 266 263 260 258
76 75 69 66 67 72 74 73 73 69 61 54 47 39 32 27 20 8 357 347 338 330 323 318 314 311 308 306 304 302 300 299 297 296 294 292 290 288 286 284 281 279 277 275 272 269 266 263 260
78 77 74 70 72 71 72 69 67 66 62 54 45 35 24 13 1 349 339 330 323 317 313 310 308 306 304 303 302 301 299 298 297 295 293 292 290 288 286 284 282 280 278 276 274 271 268 265 263
81 79 78 78 78 78 79 77 73 68 59 45 26 11 0 350 341 332 323 317 314 311 310 308 307 306 305 304 303 302 300 299 297 295 294 292 290 289 287 285 283 280 278 276 274 271 269 267 264
87 83 87 87 85 84 82 76 69 58 42 22 1 346 338 330 324 319 315 314 313 312 311 310 309 308 307 306 304 303 302 300 299 297 296 294 292 290 288 286 284 282 279 277 274 272 269 267 265
91 91 92 88 85 79 71 59 47 28 6 346 335 326 321 317 316 315 314 314 313 312 312 311 310 309 308 307 306 305 304 302 300 299 297 295 293 291 289 287 285 283 280 278 275 272 270 267 264
91 89 89 81 72 59 37 18 1 345 331 323 319 315 313 312 313 313 313 313 313 312 312 311 311 310 310 309 308 307 305 303 301 299 297 295 293 291 289 287 285 282 280 278 276 273 270 267 264
85 80 71 57 39 10 349 335 328 323 318 315 312 311 311 311 311 312 313 313 313 313 313 313 313 313 312 310 308 307 305 303 301 299 297 295 293 291 289 287 284 282 279 277 274 272 270 267 265
64 51 25 1 340 325 318 315 313 312 311 311 310 309 310 310 312 313 315 315 315 315 316 315 314 312 310 309 307 306 304 303 301 299 297 295 293 291 289 287 284 281 278 276 273 271 268 266 264
357 333 325 317 313 310 307 307 307 307 307 309 308 309 311 312 314 316 317 317 317 317 315 314 312 310 309 308 307 306 304 303 302 300 298 296 295 293 290 288 285 282 279 276 273 270 267 265 262
313 309 308 306 305 305 305 305 306 308 308 309 310 311 312 314 316 318 319 319 318 316 314 312 311 310 309 309 308 307 306 305 303 302 300 298 297 295 293 290 288 285 281 278 274 271 268 264 261
301 301 302 303 303 304 305 307 309 310 311 312 313 314 315 317 319 319 319 318 316 314 313 312 312 312 311 311 310 309 308 307 306 305 303 302 300 298 296 293 291 287 283 279 275 271 268 264 261
304 303 304 305 305 306 307 309 311 312 313 314 315 315 316 318 319 319 318 316 315 314 314 314 314 315 314 314 313 312 311 310 309 308 306 305 303 301 299 296 293 290 286 281 277 272 267 263 259
309 308 309 310 310 310 311 312 313 314 314 315 316 316 316 317 318 318 317 316 316 316 317 317 318 318 317 317 316 315 314 313 311 310 309 308 306 303 301 299 296 293 289 285 280 275 269 263 258
315 315 315 315 315 315 316 316 316 316 316 316 316 316 317 317 318 318 318 318 318 319 320 321 320 320 320 320 319 318 316 315 314 313 312 310 308 306 304 302 299 296 292 288 283 277 271 264 258
321 321 320 321 321 319 319 320 318 318 318 317 316 317 317 318 319 319 320 320 321 323 323 323 323 323 322 322 320 319 318 317 317 316 314 313 311 309 307 304 301 298 295 291 286 281 275 266 259
326 324 323 323 322 320 321 320 319 319 318 317 317 317 319 320 321 322 323 324 325 326 326 325 325 325 324 323 321 321 321 320 319 318 317 316 314 312 309 307 303 300 297 293 289 285 280 273 263
326 324 323 322 322 322 323 322 320 320 319 318 318 320 321 322 323 324 326 327 328 328 327 327 327 326 324 323 322 322 322 322 321 321 320 318 316 314 311 307 304 300 296 293 290 287 283 278 270
327 325 324 324 325 324 325 325 321 322 321 321 321 323 324 325 326 328 329 330 330 329 329 328 327 326 325 324 324 325 325 325 324 324 323 320 317 314 311 307 302 298 294 290 287 285 282 279 274
330 329 328 328 328 327 327 328 322 324 323 324 325 327 327 328 329 331 332 332 331 331 330 329 328 327 327 327 327 328 327 327 327 326 324 322 318 315 311 307 302 297 292 287 283 280 277 275 272
336 334 332 331 330 330 328 330 325 327 327 328 329 330 330 331 332 333 333 333 332 331 331 330 330 329 329 329 330 330 330 330 330 329 327 325 321 317 313 309 303 297 291 286 281 276 272 269 266
342 340 336 333 332 331 328 330 330 330 330 331 332 333 333 333 334 334 334 333 333 332 332 332 331 331 331 331 332 332 333 333 332 331 330 327 324 320 316 311 305 299 292 286 279 274 269 265 260
347 344 341 337 336 334 333 333 331 332 333 333 335 336 335 335 335 335 335 334 334 334 333 333 333 333 333 333 334 335 335 335 335 334 332 330 327 324 320 316 311 304 296 287 278 270 265 260 256
354 350 347 346 344 342 338 336 333 334 335 336 338 337 336 335 335 336 335 335 335 335 335 335 334 335 335 336 336 337 338 338 338 337 336 335 333 330 328 326 321 315 305 292 280 268 260 255 251
2 356 352 349 348 347 342 338 336 337 338 339 339 337 336 336 336 337 337 337 337 336 336 336 336 336 337 338 339 339 340 341 341 341 341 340 339 338 337 337 334 330 322 307 288 270 256 249 246
9 4 358 352 351 351 349 341 342 342 342 340 339 338 337 337 337 338 338 338 338 338 338 338 338 338 339 340 341 342 343 344 345 345 345 345 344 345 345 345 345 344 340 330 309 276 252 242 239
14 9 4 359 354 353 353 345 345 343 342 341 339 338 338 338 338 339 339 339 339 339 339 339 340 340 341 342 343 344 346 347 348 348 349 349 350 350 351 352 354 357 358 357 347 309 249 235 233
16 13 9 4 360 354 352 349 345 343 342 341 340 339 338 339 339 340 341 341 341 341 341 341 342 342 343 344 345 347 349 350 351 352 353 354 354 355 355 357 360 4 9 13 14 12 268 229 229
15 13 10 8 4 359 354 350 346 345 342 341 340 339 339 340 341 342 342 342 342 342 342 343 343 344 345 346 347 349 351 353 354 355 356 358 358 359 360 0 3 7 13 18 23 27 28 249 229
Height
5865 5866 5867 5868 5869 5868 5868 5869 5869 5869 5869 5869 5869 5869 5869 5868 5869 5870 5868 5866 5865 5864 5863 5862 5861 5859 5858 5856 5855 5853 5851 5849 5848 5846 5844 5843 5841 5840 5839 5837 5836 5835 5834 5834 5834 5834 5835 5836 5838
5867 5868 5869 5870 5869 5868 5870 5870 5870 5870 5870 5870 5869 5869 5869 5868 5867 5867 5866 5865 5864 5863 5861 5860 5858 5856 5855 5853 5851 5849 5847 5845 5842 5840 5838 5836 5834 5832 5831 5829 5828 5827 5826 5825 5825 5824 5825 5825 5827
5869 5870 5871 5870 5870 5870 5871 5871 5871 5871 5870 5870 5870 5869 5869 5868 5867 5866 5865 5864 5862 5861 5859 5857 5855 5853 5851 5848 5846 5843 5841 5838 5836 5833 5830 5828 5825 5823 5822 5820 5818 5817 5816 5816 5815 5815 5815 5815 5815
5872 5873 5872 5871 5871 5871 5871 5871 5871 5871 5871 5870 5870 5869 5868 5868 5867 5865 5864 5862 5861 5859 5856 5854 5851 5848 5846 5843 5840 5837 5834 5831 5827 5824 5821 5818 5815 5812 5810 5808 5807 5806 5805 5804 5804 5803 5804 5804 5804
5874 5874 5873 5872 5872 5872 5872 5872 5872 5872 5871 5870 5870 5868 5867 5866 5865 5863 5862 5860 5858 5855 5852 5849 5846 5842 5839 5835 5832 5828 5825 5821 5817 5814 5810 5806 5803 5800 5797 5795 5793 5791 5790 5790 5790 5790 5790 5791 5792
5876 5875 5875 5874 5874 5874 5874 5874 5873 5872 5871 5870 5869 5868 5866 5864 5863 5861 5858 5856 5853 5850 5847 5843 5839 5835 5831 5827 5823 5819 5814 5810 5805 5801 5797 5792 5788 5785 5781 5778 5776 5774 5773 5773 5773 5773 5774 5775 5777
5878 5877 5876 5876 5875 5875 5875 5874 5873 5872 5871 5870 5868 5867 5864 5862 5860 5858 5855 5852 5848 5845 5841 5836 5832 5828 5823 5818 5813 5808 5803 5798 5792 5787 5782 5777 5772 5768 5763 5760 5757 5755 5753 5753 5752 5753 5755 5757 5759
5879 5879 5877 5877 5876 5876 5875 5874 5872 5871 5870 5869 5867 5865 5862 5860 5857 5854 5851 5848 5843 5839 5834 5830 5825 5819 5814 5808 5802 5796 5790 5785 5779 5773 5767 5761 5755 5750 5745 5740 5737 5734 5731 5730 5729 5730 5732 5735 5738
5881 5881 5879 5878 5877 5876 5875 5873 5872 5870 5869 5867 5865 5862 5860 5856 5853 5850 5847 5842 5838 5833 5828 5822 5816 5810 5804 5798 5791 5784 5778 5771 5764 5757 5750 5744 5737 5731 5725 5719 5715 5711 5708 5706 5704 5705 5707 5710 5714
5882 5881 5880 5879 5878 5876 5875 5873 5871 5869 5867 5864 5862 5859 5856 5852 5849 5845 5841 5837 5831 5826 5820 5813 5807 5801 5794 5787 5780 5772 5764 5756 5747 5740 5732 5724 5716 5709 5702 5696 5690 5685 5681 5678 5677 5677 5679 5682 5686
5882 5881 5880 5878 5877 5875 5874 5872 5870 5867 5865 5862 5859 5855 5851 5847 5844 5840 5835 5830 5824 5818 5812 5805 5798 5792 5784 5776 5768 5759 5750 5740 5730 5720 5711 5701 5692 5683 5675 5668 5662 5656 5651 5647 5646 5646 5648 5651 5655
5882 5880 5879 5877 5875 5874 5872 5869 5867 5864 5862 5858 5854 5850 5846 5842 5838 5834 5829 5823 5817 5811 5804 5797 5789 5781 5773 5763 5754 5744 5733 5722 5711 5699 5688 5677 5666 5655 5645 5637 5630 5624 5619 5615 5612 5612 5614 5617 5622
5881 5879 5877 5875 5873 5871 5869 5866 5864 5860 5857 5853 5849 5845 5841 5837 5832 5828 5823 5817 5810 5803 5796 5788 5779 5770 5760 5749 5738 5726 5714 5701 5688 5675 5661 5649 5637 5625 5614 5605 5597 5590 5585 5581 5579 5578 5579 5582 5586
5879 5877 5875 5873 5871 5868 5866 5863 5860 5857 5853 5849 5845 5841 5836 5832 5827 5822 5817 5810 5803 5795 5787 5777 5767 5757 5745 5733 5720 5707 5693 5678 5664 5649 5634 5620 5607 5596 5585 5575 5566 5559 5554 5549 5547 5546 5547 5548 5552
5877 5875 5873 5870 5868 5865 5863 5860 5857 5853 5849 5845 5841 5836 5832 5827 5822 5816 5810 5803 5795 5786 5776 5766 5754 5742 5729 5715 5700 5686 5671 5656 5640 5625 5610 5595 5582 5570 5559 5548 5539 5531 5525 5520 5517 5516 5516 5518 5521
5875 5873 5870 5868 5865 5862 5861 5857 5854 5849 5845 5841 5837 5832 5827 5822 5816 5810 5803 5795 5785 5775 5764 5753 5740 5726 5712 5697 5682 5666 5649 5633 5617 5602 5587 5573 5559 5547 5535 5525 5515 5507 5500 5495 5491 5489 5489 5490 5493
5872 5870 5867 5865 5861 5858 5856 5854 5850 5846 5842 5837 5832 5827 5822 5816 5810 5803 5794 5785 5775 5764 5752 5740 5726 5711 5697 5681 5664 5646 5629 5612 5596 5580 5566 5552 5538 5525 5514 5503 5494 5486 5480 5474 5470 5467 5465 5465 5467
5870 5867 5864 5861 5859 5856 5853 5850 5846 5842 5838 5833 5828 5823 5817 5811 5803 5795 5786 5775 5764 5753 5740 5726 5712 5697 5682 5666 5648 5630 5611 5594 5577 5561 5546 5532 5518 5506 5495 5485 5477 5469 5463 5458 5453 5449 5446 5445 5445
5868 5865 5862 5859 5856 5854 5850 5847 5843 5838 5834 5829 5823 5818 5811 5804 5796 5786 5776 5765 5754 5741 5728 5714 5699 5684 5669 5652 5634 5617 5598 5580 5562 5545 5528 5514 5500 5489 5478 5469 5461 5454 5448 5442 5437 5434 5431 5428 5427
5866 5863 5860 5857 5854 5851 5848 5844 5838 5834 5829 5824 5818 5812 5805 5797 5788 5778 5767 5756 5744 5731 5717 5702 5687 5671 5654 5636 5618 5599 5581 5564 5546 5530 5513 5498 5484 5473 5463 5454 5445 5438 5431 5426 5420 5417 5415 5413 5410
5864 5861 5857 5854 5850 5847 5844 5841 5835 5830 5824 5819 5813 5806 5798 5789 5780 5769 5758 5747 5734 5721 5706 5691 5675 5658 5640 5621 5603 5586 5569 5551 5534 5519 5502 5486 5471 5458 5446 5436 5427 5418 5411 5405 5401 5397 5396 5397 5395
5861 5858 5854 5850 5847 5843 5839 5836 5831 5825 5819 5814 5807 5800 5791 5782 5772 5761 5750 5738 5725 5711 5696 5680 5663 5645 5626 5607 5589 5571 5554 5538 5521 5504 5488 5473 5457 5443 5430 5417 5405 5394 5386 5380 5376 5374 5374 5376 5379
5859 5856 5852 5848 5844 5840 5835 5831 5827 5821 5814 5808 5801 5793 5784 5774 5764 5753 5742 5729 5716 5701 5685 5669 5651 5632 5613 5594 5575 5559 5541 5524 5508 5491 5476 5460 5445 5428 5411 5395 5380 5366 5357 5351 5348 5348 5350 5354 5359
5857 5854 5851 5846 5842 5838 5832 5826 5822 5815 5809 5803 5795 5786 5777 5767 5757 5746 5734 5721 5706 5691 5675 5658 5640 5621 5602 5583 5565 5548 5531 5514 5497 5481 5465 5449 5431 5412 5392 5371 5353 5338 5327 5321 5319 5322 5326 5331 5338
5855 5852 5848 5843 5839 5834 5828 5822 5818 5811 5804 5797 5789 5780 5770 5760 5750 5739 5726 5712 5697 5681 5665 5648 5630 5611 5593 5574 5556 5539 5521 5503 5485 5468 5451 5434 5415 5394 5371 5350 5331 5315 5303 5296 5294 5297 5303 5311 5319
5853 5849 5845 5840 5835 5831 5825 5819 5815 5807 5799 5790 5783 5774 5764 5754 5743 5732 5718 5704 5689 5673 5657 5640 5621 5603 5585 5566 5548 5530 5512 5494 5476 5458 5439 5419 5398 5376 5353 5333 5314 5298 5285 5277 5274 5277 5284 5293 5303
5852 5847 5843 5837 5832 5828 5822 5816 5809 5801 5794 5786 5777 5768 5758 5748 5737 5725 5711 5697 5681 5666 5649 5632 5614 5595 5577 5559 5541 5524 5506 5488 5469 5450 5430 5409 5387 5364 5343 5324 5306 5290 5277 5267 5263 5265 5272 5281 5290
5851 5846 5841 5834 5827 5822 5819 5811 5805 5796 5789 5781 5772 5763 5753 5742 5731 5718 5704 5689 5674 5658 5641 5624 5605 5587 5569 5551 5534 5517 5500 5481 5463 5444 5424 5403 5381 5359 5339 5321 5305 5290 5277 5267 5262 5262 5268 5275 5283
5850 5845 5839 5833 5826 5819 5813 5810 5801 5793 5784 5776 5767 5757 5747 5736 5724 5711 5697 5682 5667 5651 5634 5617 5599 5581 5563 5546 5529 5513 5495 5477 5459 5440 5420 5399 5377 5357 5338 5321 5306 5293 5283 5274 5269 5267 5270 5274 5280
5849 5843 5838 5832 5826 5818 5811 5808 5797 5789 5780 5771 5762 5752 5741 5730 5718 5704 5690 5675 5660 5645 5628 5611 5593 5575 5559 5542 5525 5509 5492 5475 5457 5438 5419 5398 5377 5357 5339 5323 5310 5299 5290 5283 5278 5275 5275 5277 5279